Location: Briarstone Lake
(43.1454°N, 93.2359°W)
Time: 07:48:47
(UTC+00:00)

BlueWalker 3 - Pass Details

Date: 24 January 2026
Orbit: 450 x 461 km, 53.2° (Epoch: 11 February)

Event Time Altitude Azimuth Distance (km) Brightness Sun altitude
Rises 23:58:53 0° 227° (SW) 2,446 6.8 -8.5°
Reaches altitude 10° 00:01:01 10° 225° (SW) 1,576 5.6 -8.8°
Maximum altitude 00:04:33 72° 141° (SE) 478 1.7 -9.5°
Enters shadow 00:07:34 14° 58° (ENE) 1,369 3.5 -10.0°
